DW8313 Weather Reports


Display with metric or nautical units.
time (UTC)temp
F
wind
direction
speed
MPH
gust
MPH
rain 1hr
in
rain 24hr
in
rain mn
in
humidity
%
barometer
mb
20260906163804 70 116 0.0 2.0 0.02 0.06 0.06 84 1011.2
20260906163603 70 0 0.0 0.0 0.01 0.06 0.06 84 1011.2
20260906163403 69 0 0.0 0.0 0.01 0.06 0.06 85 1011.2
20260906163203 69 0 0.0 0.0 0.01 0.06 0.06 87 1011.2
20260906163003 69 0 0.0 0.0 0.01 0.06 0.06 87 1011.1
20260906162803 69 0 0.0 0.0 0.02 0.06 0.06 88 1011.1
20260906162603 68 0 0.0 0.0 0.02 0.06 0.06 89 1011.0
20260906162403 68 0 0.0 0.0 0.02 0.06 0.06 90 1011.0
20260906162203 68 0 0.0 0.0 0.02 0.06 0.06 92 1010.9
20260906162003 67 0 0.0 0.0 0.02 0.06 0.06 92 1010.9
20260906161803 67 0 0.0 0.0 0.02 0.06 0.06 92 1010.9
20260906161624 67 0 0.0 0.0 0.02 0.06 0.06 92 1010.9
20260906161404 66 352 0.0 1.0 0.02 0.06 0.06 92 1010.9
20260906161204 66 352 0.0 1.0 0.02 0.06 0.06 92 1010.8
20260906161003 66 352 0.0 1.0 0.02 0.06 0.06 91 1010.8
20260906160803 66 352 0.0 1.0 0.02 0.06 0.06 90 1010.8
20260906160603 66 352 0.0 1.0 0.02 0.06 0.06 90 1010.8
20260906160424 66 352 0.0 1.0 0.01 0.05 0.05 90 1010.9
20260906160203 66 105 0.0 2.0 0.01 0.05 0.05 91 1010.8
20260906160003 65 104 0.0 2.0 0.01 0.05 0.05 91 1010.8
20260906155803 65 104 0.0 2.0 0.01 0.05 0.05 90 1010.8
20260906155603 65 104 0.0 2.0 0.01 0.05 0.05 91 1010.8
20260906155403 65 104 0.0 2.0 0.01 0.05 0.05 91 1010.9
20260906155203 65 104 0.0 2.0 0.01 0.05 0.05 91 1010.9
20260906155003 64 103 0.0 1.0 0.01 0.05 0.05 91 1010.9
20260906154803 64 103 0.0 1.0 0.02 0.05 0.05 91 1011.0
20260906154603 64 103 0.0 1.0 0.02 0.05 0.05 90 1010.8
20260906154403 63 103 0.0 1.0 0.02 0.05 0.05 90 1010.9
20260906154203 63 103 0.0 1.0 0.02 0.05 0.05 89 1011.0
20260906154003 63 0 0.0 0.0 0.02 0.05 0.05 88 1011.0
20260906153803 63 0 0.0 0.0 0.02 0.05 0.05 87 1011.0
20260906153603 63 0 0.0 0.0 0.02 0.05 0.05 86 1010.9
20260906153403 63 0 0.0 0.0 0.03 0.05 0.05 86 1011.0
20260906153203 62 0 0.0 0.0 0.03 0.05 0.05 85 1011.0
20260906153003 62 0 0.0 0.0 0.03 0.05 0.05 85 1011.1
20260906152803 63 0 0.0 0.0 0.02 0.04 0.04 85 1011.2
20260906152604 62 0 0.0 0.0 0.03 0.04 0.04 85 1011.2
20260906152404 62 0 0.0 0.0 0.03 0.04 0.04 85 1011.3
20260906152225 62 0 0.0 0.0 0.03 0.04 0.04 85 1011.2
20260906152004 62 0 0.0 0.0 0.03 0.04 0.04 84 1011.3
20260906151804 62 0 0.0 0.0 0.03 0.04 0.04 84 1011.3
20260906151604 62 0 0.0 0.0 0.03 0.04 0.04 84 1011.3
20260906151404 62 0 0.0 0.0 0.03 0.04 0.04 84 1011.3
20260906151204 62 0 0.0 0.0 0.03 0.04 0.04 83 1011.4
20260906151004 62 0 0.0 0.0 0.03 0.04 0.04 83 1011.5
20260906150804 62 0 0.0 0.0 0.03 0.04 0.04 83 1011.5
20260906150604 62 0 0.0 0.0 0.03 0.04 0.04 82 1011.4
20260906150405 62 0 0.0 0.0 0.03 0.04 0.04 82 1011.4
20260906150204 62 0 0.0 0.0 0.03 0.04 0.04 82 1011.5
20260906150004 63 0 0.0 0.0 0.03 0.04 0.04 82 1011.5
20260906145804 63 104 0.0 1.0 0.03 0.04 0.04 83 1011.5
20260906145604 63 97 0.0 2.0 0.03 0.04 0.04 84 1011.6
20260906145404 63 91 1.0 3.0 0.03 0.04 0.04 83 1011.6
20260906145204 63 89 1.0 3.0 0.03 0.04 0.04 83 1011.6
20260906145004 63 89 1.0 3.0 0.03 0.04 0.04 82 1011.5
20260906144804 63 90 1.0 3.0 0.02 0.03 0.03 81 1011.5
20260906144604 64 87 1.0 3.0 0.02 0.03 0.03 80 1011.6
20260906144404 64 90 1.0 3.0 0.02 0.02 0.02 79 1011.5
20260906144225 64 94 0.0 2.0 0.02 0.02 0.02 78 1011.6
20260906144004 64 94 0.0 2.0 0.02 0.02 0.02 77 1011.5
20260906143804 65 94 0.0 2.0 0.02 0.02 0.02 77 1011.5
20260906143604 65 94 0.0 2.0 0.02 0.02 0.02 76 1011.4
20260906143404 66 89 0.0 2.0 0.01 0.02 0.02 75 1011.4
20260906143204 66 0 0.0 0.0 0.01 0.02 0.02 73 1011.4
20260906143005 66 0 0.0 0.0 0.01 0.02 0.02 73 1011.4
20260906142804 66 0 0.0 0.0 0.01 0.02 0.02 73 1011.5
20260906142604 66 0 0.0 0.0 0.00 0.01 0.01 73 1011.4
20260906142404 66 0 0.0 0.0 0.00 0.01 0.01 71 1011.5
20260906142204 66 0 0.0 0.0 0.00 0.01 0.01 73 1011.4
20260906142004 66 0 0.0 0.0 0.00 0.01 0.01 75 1011.4
20260906141804 66 59 0.0 1.0 0.00 0.01 0.01 75 1011.4
20260906141604 66 59 0.0 1.0 0.00 0.01 0.01 76 1011.4
20260906141405 66 57 0.0 2.0 0.00 0.01 0.01 77 1011.4
20260906141204 66 57 0.0 2.0 0.00 0.01 0.01 76 1011.3
20260906141004 66 58 0.0 2.0 0.00 0.01 0.01 77 1011.3
20260906140804 66 57 0.0 2.0 0.00 0.01 0.01 79 1011.2
20260906140605 66 84 0.0 2.0 0.00 0.01 0.01 79 1011.1
20260906140404 66 97 0.0 2.0 0.00 0.01 0.01 80 1011.1
20260906140225 66 97 0.0 2.0 0.00 0.01 0.01 79 1011.0
20260906140004 66 98 0.0 2.0 0.00 0.01 0.01 80 1010.9
20260906135825 66 98 0.0 2.0 0.00 0.01 0.01 79 1010.9
20260906135625 67 98 0.0 2.0 0.00 0.01 0.01 79 1010.9
20260906135425 67 0 0.0 0.0 0.00 0.01 0.01 79 1010.9
20260906135204 67 0 0.0 0.0 0.00 0.01 0.01 77 1010.8
20260906135004 67 0 0.0 0.0 0.00 0.01 0.01 76 1010.8
20260906134804 67 0 0.0 0.0 0.01 0.01 0.01 77 1010.7
20260906134604 67 194 0.0 1.0 0.01 0.01 0.01 76 1010.7
20260906134425 66 191 0.0 3.0 0.01 0.01 0.01 76 1010.6
20260906134204 66 186 1.0 3.0 0.01 0.01 0.01 77 1010.6
20260906134004 66 186 1.0 3.0 0.01 0.01 0.01 77 1010.4
20260906133825 66 186 1.0 3.0 0.01 0.01 0.01 77 1010.4
20260906133604 66 183 0.0 3.0 0.01 0.01 0.01 77 1010.2
20260906133404 66 171 0.0 2.0 0.01 0.01 0.01 78 1010.1
20260906133204 66 0 0.0 0.0 0.01 0.01 0.01 79 1010.0
20260906133004 66 0 0.0 0.0 0.01 0.01 0.01 79 1010.0
20260906132804 66 0 0.0 0.0 0.01 0.01 0.01 79 1009.9
20260906132604 66 0 0.0 0.0 0.01 0.01 0.01 79 1009.8
20260906132404 66 0 0.0 0.0 0.01 0.01 0.01 78 1009.7
20260906132204 66 0 0.0 0.0 0.01 0.01 0.01 78 1009.7
20260906132025 66 0 0.0 0.0 0.01 0.01 0.01 78 1009.6
20260906131804 67 0 0.0 0.0 0.01 0.01 0.01 78 1009.5
20260906131604 67 0 0.0 0.0 0.01 0.01 0.01 77 1009.6
20260906131404 67 0 0.0 0.0 0.01 0.01 0.01 76 1009.6
20260906131205 67 0 0.0 0.0 0.01 0.01 0.01 75 1009.6
20260906131004 67 0 0.0 0.0 0.01 0.01 0.01 75 1009.6
20260906130804 67 0 0.0 0.0 0.01 0.01 0.01 75 1009.8
20260906130604 68 134 0.0 2.0 0.01 0.01 0.01 75 1009.8
20260906130404 68 136 0.0 3.0 0.01 0.01 0.01 74 1009.7
20260906130204 68 136 0.0 3.0 0.01 0.01 0.01 72 1009.8
20260906130005 68 136 0.0 3.0 0.01 0.01 0.01 71 1009.8
20260906125825 68 136 0.0 3.0 0.01 0.01 0.01 72 1009.8
20260906125604 68 137 0.0 3.0 0.01 0.01 0.01 70 1009.8
20260906125404 68 0 0.0 0.0 0.01 0.01 0.01 69 1009.8
20260906125204 68 0 0.0 0.0 0.01 0.01 0.01 69 1009.7
20260906125004 68 96 0.0 1.0 0.01 0.01 0.01 71 1009.8
20260906124804 68 95 0.0 2.0 0.00 0.00 0.00 69 1009.8
20260906124604 68 94 0.0 2.0 0.00 0.00 0.00 69 1009.7
20260906124404 68 94 0.0 2.0 0.00 0.00 0.00 70 1009.7
20260906124204 67 94 0.0 2.0 0.00 0.00 0.00 71 1009.8
20260906124004 67 94 0.0 2.0 0.00 0.00 0.00 71 1009.8
20260906123804 67 97 0.0 3.0 0.00 0.00 0.00 72 1009.9
20260906123604 67 94 1.0 4.0 0.00 0.00 0.00 72 1009.9
20260906123404 67 92 1.0 4.0 0.00 0.00 0.00 72 1009.9
20260906123204 67 93 1.0 4.0 0.00 0.00 0.00 71 1009.9
20260906123025 67 95 1.0 4.0 0.00 0.00 0.00 71 1010.0
20260906122804 67 94 2.0 4.0 0.00 0.00 0.00 71 1010.0
20260906122604 67 92 2.0 4.0 0.00 0.00 0.00 70 1009.9
20260906122404 67 93 1.0 4.0 0.00 0.00 0.00 69 1010.0
20260906122204 66 92 1.0 4.0 0.00 0.00 0.00 71 1010.1
20260906122004 66 90 1.0 4.0 0.00 0.00 0.00 72 1010.0
20260906121804 66 88 1.0 4.0 0.00 0.00 0.00 73 1010.0
20260906121625 67 92 0.0 3.0 0.00 0.00 0.00 73 1010.0
20260906121405 67 94 0.0 2.0 0.00 0.00 0.00 71 1010.1
20260906121204 68 81 0.0 2.0 0.00 0.00 0.00 70 1010.2
20260906121004 68 113 1.0 9.0 0.00 0.00 0.00 68 1010.3
20260906120804 68 117 2.0 9.0 0.00 0.00 0.00 67 1010.3
20260906120604 68 114 3.0 9.0 0.00 0.00 0.00 67 1010.3
20260906120404 69 113 4.0 9.0 0.00 0.00 0.00 64 1010.4
20260906120204 69 113 5.0 9.0 0.00 0.00 0.00 62 1010.3
20260906120005 69 112 5.0 8.0 0.00 0.00 0.00 62 1010.3
20260906115804 69 110 5.0 8.0 0.00 0.00 0.00 61 1010.3
20260906115605 69 112 5.0 8.0 0.00 0.00 0.00 61 1010.4
20260906115425 70 115 5.0 8.0 0.00 0.00 0.00 60 1010.3
20260906115225 70 116 4.0 8.0 0.00 0.00 0.00 59 1010.3
20260906115004 71 117 4.0 8.0 0.00 0.00 0.00 56 1010.3
20260906114804 72 120 3.0 7.0 0.00 0.00 0.00 55 1010.3
20260906114604 72 121 2.0 7.0 0.00 0.00 0.00 53 1010.4
20260906114425 72 117 2.0 7.0 0.00 0.00 0.00 52 1010.4
20260906114204 71 117 1.0 5.0 0.00 0.00 0.00 51 1010.4
20260906114004 71 120 1.0 3.0 0.00 0.00 0.00 53 1010.4
20260906113804 71 117 0.0 3.0 0.00 0.00 0.00 53 1010.3
20260906113604 71 120 0.0 3.0 0.00 0.00 0.00 54 1010.3
20260906113425 71 106 0.0 1.0 0.00 0.00 0.00 55 1010.3
20260906113204 70 0 0.0 0.0 0.00 0.00 0.00 56 1010.4
20260906113004 70 0 0.0 0.0 0.00 0.00 0.00 56 1010.4
20260906112804 70 84 0.0 1.0 0.00 0.00 0.00 58 1010.4
20260906112626 70 87 0.0 2.0 0.00 0.00 0.00 59 1010.4
20260906112404 70 87 0.0 2.0 0.00 0.00 0.00 60 1010.3
20260906112204 70 87 0.0 2.0 0.00 0.00 0.00 61 1010.3
20260906112025 70 87 0.0 2.0 0.00 0.00 0.00 60 1010.4
20260906111804 70 87 0.0 2.0 0.00 0.00 0.00 61 1010.4
20260906111604 70 0 0.0 0.0 0.00 0.00 0.00 61 1010.4
20260906111404 70 0 0.0 0.0 0.00 0.00 0.00 61 1010.5
20260906111205 71 0 0.0 0.0 0.00 0.00 0.00 59 1010.5
20260906111005 71 0 0.0 0.0 0.00 0.00 0.00 57 1010.5
20260906110804 72 0 0.0 0.0 0.00 0.00 0.00 54 1010.5
20260906110604 72 0 0.0 0.0 0.00 0.00 0.00 52 1010.4
20260906110404 73 0 0.0 0.0 0.00 0.00 0.00 49 1010.4
20260906110204 73 0 0.0 0.0 0.00 0.00 0.00 48 1010.4
20260906110004 73 0 0.0 0.0 0.00 0.00 0.00 47 1010.3
20260906105804 73 0 0.0 0.0 0.00 0.00 0.00 46 1010.4
20260906105604 73 0 0.0 0.0 0.00 0.00 0.00 46 1010.5
20260906105404 73 0 0.0 0.0 0.00 0.00 0.00 47 1010.4
20260906105204 73 0 0.0 0.0 0.00 0.00 0.00 47 1010.4
20260906105004 73 221 0.0 1.0 0.00 0.00 0.00 47 1010.4
20260906104804 73 221 0.0 1.0 0.00 0.00 0.00 47 1010.4
20260906104604 73 221 0.0 1.0 0.00 0.00 0.00 47 1010.4
20260906104404 73 221 0.0 1.0 0.00 0.00 0.00 47 1010.4
20260906104225 73 221 0.0 1.0 0.00 0.00 0.00 47 1010.4
20260906104004 72 0 0.0 0.0 0.00 0.00 0.00 47 1010.4
20260906103825 72 0 0.0 0.0 0.00 0.00 0.00 47 1010.3
20260906103604 72 0 0.0 0.0 0.00 0.00 0.00 47 1010.3
20260906103425 72 0 0.0 0.0 0.00 0.00 0.00 47 1010.2
20260906103204 72 84 0.0 1.0 0.00 0.00 0.00 47 1010.2
20260906103004 72 84 0.0 1.0 0.00 0.00 0.00 46 1010.2
20260906102825 72 84 0.0 1.0 0.00 0.00 0.00 46 1010.2
20260906102604 72 84 0.0 1.0 0.00 0.00 0.00 46 1010.2
20260906102404 72 84 0.0 1.0 0.00 0.00 0.00 47 1010.2
20260906102204 72 0 0.0 0.0 0.00 0.00 0.00 47 1010.2
20260906102004 72 0 0.0 0.0 0.00 0.00 0.00 46 1010.2
20260906101805 72 0 0.0 0.0 0.00 0.00 0.00 47 1010.2
20260906101604 72 88 0.0 1.0 0.00 0.00 0.00 47 1010.3
20260906101404 72 88 0.0 1.0 0.00 0.00 0.00 48 1010.3
20260906101204 72 88 0.0 1.0 0.00 0.00 0.00 49 1010.3
20260906101004 72 88 0.0 1.0 0.00 0.00 0.00 49 1010.2
20260906100804 72 88 0.0 1.0 0.00 0.00 0.00 49 1010.3
20260906100604 72 0 0.0 0.0 0.00 0.00 0.00 49 1010.3
20260906100404 72 0 0.0 0.0 0.00 0.00 0.00 48 1010.4
20260906100225 72 0 0.0 0.0 0.00 0.00 0.00 48 1010.4
20260906100005 72 0 0.0 0.0 0.00 0.00 0.00 48 1010.5
20260906095805 72 0 0.0 0.0 0.00 0.00 0.00 49 1010.5
20260906095604 72 0 0.0 0.0 0.00 0.00 0.00 49 1010.5
20260906095404 72 0 0.0 0.0 0.00 0.00 0.00 50 1010.5
20260906095204 72 0 0.0 0.0 0.00 0.00 0.00 50 1010.5
20260906095004 72 0 0.0 0.0 0.00 0.00 0.00 50 1010.5
20260906094805 72 0 0.0 0.0 0.00 0.00 0.00 50 1010.6
20260906094604 72 0 0.0 0.0 0.00 0.00 0.00 50 1010.6
20260906094404 72 0 0.0 0.0 0.00 0.00 0.00 50 1010.6
20260906094204 71 0 0.0 0.0 0.00 0.00 0.00 51 1010.7
20260906094004 71 0 0.0 0.0 0.00 0.00 0.00 51 1010.6
20260906093804 71 0 0.0 0.0 0.00 0.00 0.00 51 1010.6
20260906093604 71 0 0.0 0.0 0.00 0.00 0.00 51 1010.6
20260906093404 71 0 0.0 0.0 0.00 0.00 0.00 52 1010.6
20260906093204 71 0 0.0 0.0 0.00 0.00 0.00 52 1010.7
20260906093004 71 0 0.0 0.0 0.00 0.00 0.00 52 1010.7
20260906092804 71 0 0.0 0.0 0.00 0.00 0.00 51 1010.8
20260906092604 71 0 0.0 0.0 0.00 0.00 0.00 51 1010.7
20260906092404 71 0 0.0 0.0 0.00 0.00 0.00 51 1010.8
20260906092204 71 103 0.0 1.0 0.00 0.00 0.00 51 1010.8
20260906092004 71 103 0.0 1.0 0.00 0.00 0.00 51 1010.8
20260906091805 71 103 0.0 1.0 0.00 0.00 0.00 51 1010.8
20260906091604 70 103 0.0 1.0 0.00 0.00 0.00 51 1010.9
20260906091404 70 103 0.0 1.0 0.00 0.00 0.00 51 1010.8
20260906091204 70 111 0.0 1.0 0.00 0.00 0.00 51 1010.8
20260906091004 70 111 0.0 1.0 0.00 0.00 0.00 51 1010.8
20260906090804 70 111 0.0 1.0 0.00 0.00 0.00 51 1010.8
20260906090604 70 111 0.0 1.0 0.00 0.00 0.00 51 1010.8
20260906090404 70 111 0.0 1.0 0.00 0.00 0.00 51 1010.8
20260906090204 70 0 0.0 0.0 0.00 0.00 0.00 51 1010.8
20260906090004 71 0 0.0 0.0 0.00 0.00 0.00 51 1010.8
20260906085825 71 0 0.0 0.0 0.00 0.00 0.00 50 1010.8
20260906085604 71 248 0.0 1.0 0.00 0.00 0.00 50 1010.8
20260906085404 71 248 0.0 1.0 0.00 0.00 0.00 49 1010.8
20260906085204 72 248 0.0 1.0 0.00 0.00 0.00 48 1010.8
20260906085004 72 248 0.0 1.0 0.00 0.00 0.00 48 1010.8
20260906084804 72 248 0.0 1.0 0.00 0.00 0.00 47 1010.8
20260906084604 72 248 0.0 1.0 0.00 0.00 0.00 48 1010.8
20260906084404 72 0 0.0 0.0 0.00 0.00 0.00 48 1010.8
20260906084204 72 0 0.0 0.0 0.00 0.00 0.00 48 1010.8
20260906084005 72 161 0.0 2.0 0.00 0.00 0.00 48 1010.8
20260906083805 72 161 0.0 2.0 0.00 0.00 0.00 47 1010.7
20260906083625 72 161 0.0 2.0 0.00 0.00 0.00 47 1010.7
20260906083404 72 155 0.0 2.0 0.00 0.00 0.00 46 1010.7
20260906083204 72 155 0.0 2.0 0.00 0.00 0.00 46 1010.8
20260906083004 72 101 0.0 1.0 0.00 0.00 0.00 46 1010.8
20260906082804 72 101 0.0 1.0 0.00 0.00 0.00 46 1010.8
20260906082604 72 90 0.0 2.0 0.00 0.00 0.00 46 1010.8
20260906082404 72 92 0.0 2.0 0.00 0.00 0.00 45 1010.8
20260906082204 72 94 1.0 2.0 0.00 0.00 0.00 45 1010.7
20260906082004 72 96 1.0 2.0 0.00 0.00 0.00 46 1010.7
20260906081825 72 96 1.0 2.0 0.00 0.00 0.00 46 1010.7
20260906081604 71 96 2.0 3.0 0.00 0.00 0.00 46 1010.7
20260906081404 71 96 2.0 4.0 0.00 0.00 0.00 46 1010.7
20260906081204 71 95 2.0 4.0 0.00 0.00 0.00 47 1010.7
20260906081004 71 91 2.0 4.0 0.00 0.00 0.00 47 1010.7
20260906080804 70 90 2.0 4.0 0.00 0.00 0.00 48 1010.7
20260906080604 70 90 1.0 4.0 0.00 0.00 0.00 48 1010.7
20260906080405 70 88 1.0 4.0 0.00 0.00 0.00 48 1010.7
20260906080204 70 84 1.0 4.0 0.00 0.00 0.00 48 1010.7
20260906080025 70 86 0.0 3.0 0.00 0.00 0.00 47 1010.8
20260906075804 70 110 0.0 1.0 0.00 0.00 0.00 48 1010.9
20260906075605 70 110 0.0 1.0 0.00 0.00 0.00 48 1011.0
20260906075404 70 110 0.0 1.0 0.00 0.00 0.00 48 1011.0
20260906075225 70 110 0.0 1.0 0.00 0.00 0.00 48 1011.0
20260906075004 70 110 0.0 1.0 0.00 0.00 0.00 48 1011.0
20260906074804 70 0 0.0 0.0 0.00 0.00 0.00 48 1011.0
20260906074604 70 0 0.0 0.0 0.00 0.00 0.00 48 1011.0
20260906074404 70 0 0.0 0.0 0.00 0.00 0.00 48 1011.1
20260906074204 70 0 0.0 0.0 0.00 0.00 0.00 48 1011.0
20260906074025 70 0 0.0 0.0 0.00 0.00 0.00 48 1011.0
20260906073804 70 0 0.0 0.0 0.00 0.00 0.00 48 1011.0
20260906073625 70 0 0.0 0.0 0.00 0.00 0.00 48 1011.0
20260906073404 71 0 0.0 0.0 0.00 0.00 0.00 47 1011.0
20260906073204 71 0 0.0 0.0 0.00 0.00 0.00 46 1011.1
20260906073004 71 0 0.0 0.0 0.00 0.00 0.00 46 1011.0
20260906072805 71 0 0.0 0.0 0.00 0.00 0.00 46 1010.9
20260906072604 72 0 0.0 0.0 0.00 0.00 0.00 45 1010.9
20260906072404 72 0 0.0 0.0 0.00 0.00 0.00 45 1011.0
20260906072204 72 0 0.0 0.0 0.00 0.00 0.00 44 1010.9
20260906072005 72 0 0.0 0.0 0.00 0.00 0.00 44 1010.9
20260906071804 72 0 0.0 0.0 0.00 0.00 0.00 44 1010.9
20260906071625 72 0 0.0 0.0 0.00 0.00 0.00 44 1010.9
20260906071405 72 0 0.0 0.0 0.00 0.00 0.00 44 1010.9
20260906071204 72 0 0.0 0.0 0.00 0.00 0.00 44 1010.9
20260906071025 72 0 0.0 0.0 0.00 0.00 0.00 44 1010.9
20260906070805 72 0 0.0 0.0 0.00 0.00 0.00 44 1010.9
20260906070604 73 0 0.0 0.0 0.00 0.00 0.00 44 1010.8
20260906070405 73 0 0.0 0.0 0.00 0.00 0.00 44 1010.9
20260906070204 73 0 0.0 0.0 0.00 0.00 0.00 44 1010.9
20260906070025 73 0 0.0 0.0 0.00 0.00 0.00 44 1010.9
20260906065804 73 0 0.0 0.0 0.00 0.00 0.00 43 1010.9
20260906065604 73 0 0.0 0.0 0.00 0.00 0.00 43 1010.9
20260906065404 72 0 0.0 0.0 0.00 0.00 0.00 43 1010.8
20260906065204 72 0 0.0 0.0 0.00 0.00 0.00 43 1010.9
20260906065004 72 0 0.0 0.0 0.00 0.00 0.00 43 1010.9
20260906064825 72 82 0.0 1.0 0.00 0.00 0.00 43 1010.9
20260906064625 72 82 0.0 1.0 0.00 0.00 0.00 43 1010.9
20260906064404 72 82 0.0 1.0 0.00 0.00 0.00 43 1010.9
20260906064204 72 82 0.0 1.0 0.00 0.00 0.00 43 1011.0
20260906064004 72 82 0.0 1.0 0.00 0.00 0.00 43 1011.0
20260906063804 72 0 0.0 0.0 0.00 0.00 0.00 43 1011.0
20260906063604 72 0 0.0 0.0 0.00 0.00 0.00 43 1011.0
20260906063404 73 96 0.0 1.0 0.00 0.00 0.00 43 1011.0
20260906063204 73 96 0.0 1.0 0.00 0.00 0.00 43 1011.0
20260906063004 72 88 0.0 3.0 0.00 0.00 0.00 43 1011.0
20260906062804 72 88 1.0 3.0 0.00 0.00 0.00 43 1011.0
20260906062604 72 88 1.0 3.0 0.00 0.00 0.00 43 1011.1
20260906062404 72 88 1.0 3.0 0.00 0.00 0.00 42 1011.1
20260906062204 72 88 1.0 3.0 0.00 0.00 0.00 42 1011.2
20260906062025 72 87 0.0 3.0 0.00 0.00 0.00 42 1011.2
20260906061805 72 0 0.0 0.0 0.00 0.00 0.00 41 1011.1
20260906061625 72 0 0.0 0.0 0.00 0.00 0.00 41 1011.1
20260906061404 73 101 0.0 1.0 0.00 0.00 0.00 41 1011.1
20260906061204 73 101 0.0 1.0 0.00 0.00 0.00 41 1011.1
20260906061004 73 101 0.0 1.0 0.00 0.00 0.00 41 1011.0
20260906060805 73 101 0.0 1.0 0.00 0.00 0.00 41 1011.0
20260906060604 73 101 0.0 1.0 0.00 0.00 0.00 41 1011.1
20260906060425 72 0 0.0 0.0 0.00 0.00 0.00 41 1011.1
20260906060205 72 0 0.0 0.0 0.00 0.00 0.00 41 1011.1
20260906060004 72 90 0.0 1.0 0.00 0.00 0.00 41 1011.0
20260906055825 72 90 0.0 1.0 0.00 0.00 0.00 41 1011.1
20260906055604 72 90 0.0 1.0 0.00 0.00 0.00 41 1011.0
20260906055404 72 90 0.0 1.0 0.00 0.00 0.00 41 1011.0
20260906055204 72 90 0.0 1.0 0.00 0.00 0.00 41 1011.1
20260906055004 72 0 0.0 0.0 0.00 0.00 0.00 41 1011.0
20260906054804 72 0 0.0 0.0 0.00 0.00 0.00 41 1011.0
20260906054604 71 0 0.0 0.0 0.00 0.00 0.00 41 1011.1
20260906054404 71 0 0.0 0.0 0.00 0.00 0.00 41 1011.0
20260906054204 71 85 0.0 1.0 0.00 0.00 0.00 42 1011.0
20260906054025 71 94 0.0 1.0 0.00 0.00 0.00 42 1011.0
20260906053804 71 94 0.0 1.0 0.00 0.00 0.00 41 1011.1
20260906053604 71 94 0.0 1.0 0.00 0.00 0.00 41 1011.1
20260906053404 71 94 0.0 1.0 0.00 0.00 0.00 41 1011.0
20260906053225 71 98 0.0 1.0 0.00 0.00 0.00 41 1011.0
20260906053025 71 0 0.0 0.0 0.00 0.00 0.00 41 1011.1
20260906052804 71 89 0.0 1.0 0.00 0.00 0.00 40 1011.1
20260906052604 71 89 0.0 2.0 0.00 0.00 0.00 40 1011.1
20260906052404 71 89 0.0 3.0 0.00 0.00 0.00 40 1011.1
20260906052225 71 89 1.0 3.0 0.00 0.00 0.00 40 1011.1
20260906052004 71 88 1.0 3.0 0.00 0.00 0.00 40 1011.1
20260906051804 71 87 1.0 3.0 0.00 0.00 0.00 40 1011.1
20260906051604 71 86 1.0 3.0 0.00 0.00 0.00 40 1011.1
20260906051405 71 86 1.0 3.0 0.00 0.00 0.00 40 1011.2
20260906051204 71 86 1.0 3.0 0.00 0.00 0.00 40 1011.1
20260906051004 71 85 1.0 3.0 0.00 0.00 0.00 40 1011.2
20260906050804 71 85 1.0 3.0 0.00 0.00 0.00 40 1011.1
20260906050605 72 86 1.0 3.0 0.00 0.00 0.00 40 1011.1
20260906050404 72 86 1.0 3.0 0.00 0.00 0.00 40 1011.2
20260906050205 72 85 1.0 3.0 0.00 0.00 0.00 40 1011.2
20260906050004 72 86 1.0 3.0 0.00 0.00 0.00 40 1011.2
20260906045804 71 89 0.0 2.0 0.00 0.00 0.00 40 1011.2
20260906045625 71 88 0.0 2.0 0.00 0.00 0.00 40 1011.3
20260906045404 72 90 1.0 3.0 0.00 0.00 0.00 40 1011.3
20260906045204 72 90 1.0 3.0 0.00 0.00 0.00 40 1011.3
20260906045025 72 89 1.0 3.0 0.00 0.00 0.00 40 1011.4
20260906044804 72 91 1.0 3.0 0.00 0.00 0.00 40 1011.3
20260906044604 72 93 1.0 4.0 0.00 0.00 0.00 40 1011.3
20260906044425 72 94 1.0 4.0 0.00 0.00 0.00 40 1011.4
20260906044204 72 95 2.0 4.0 0.00 0.00 0.00 40 1011.4
20260906044004 72 95 1.0 4.0 0.00 0.00 0.00 40 1011.5
20260906043804 72 94 1.0 4.0 0.00 0.00 0.00 40 1011.5
20260906043604 72 93 1.0 4.0 0.00 0.00 0.00 40 1011.5
20260906043404 72 92 1.0 3.0 0.00 0.00 0.00 40 1011.5
20260906043204 72 88 1.0 3.0 0.00 0.00 0.00 40 1011.5
20260906043004 72 86 1.0 3.0 0.00 0.00 0.00 39 1011.5
20260906042825 72 86 1.0 3.0 0.00 0.00 0.00 39 1011.5
20260906042604 72 86 1.0 3.0 0.00 0.00 0.00 39 1011.5
20260906042404 72 86 1.0 3.0 0.00 0.00 0.00 39 1011.5
20260906042204 72 87 1.0 3.0 0.00 0.00 0.00 39 1011.5
20260906042004 72 93 0.0 3.0 0.00 0.00 0.00 39 1011.4
20260906041804 72 90 0.0 3.0 0.00 0.00 0.00 39 1011.4
20260906041604 72 86 0.0 1.0 0.00 0.00 0.00 39 1011.4
20260906041404 72 86 0.0 1.0 0.00 0.00 0.00 39 1011.4
20260906041225 72 80 0.0 2.0 0.00 0.00 0.00 39 1011.3
20260906041004 72 80 0.0 2.0 0.00 0.00 0.00 39 1011.3
20260906040804 72 80 0.0 2.0 0.00 0.00 0.00 39 1011.3
20260906040625 73 80 0.0 2.0 0.00 0.00 0.00 39 1011.3
20260906040405 73 80 0.0 2.0 0.00 0.00 0.00 39 1011.3
20260906040205 73 96 0.0 2.0 0.00 0.00 0.00 39 1011.3
20260906040004 73 96 0.0 2.0 0.00 0.00 0.00 39 1011.3
20260906035804 73 96 0.0 2.0 0.00 0.00 0.00 39 1011.3
20260906035604 73 91 0.0 2.0 0.00 0.00 0.00 39 1011.3
20260906035404 73 91 0.0 2.0 0.00 0.00 0.00 39 1011.3
20260906035204 73 89 0.0 2.0 0.00 0.00 0.00 39 1011.3
20260906035025 73 89 0.0 2.0 0.00 0.00 0.00 39 1011.3
20260906034825 73 89 0.0 2.0 0.00 0.00 0.00 39 1011.3
20260906034604 73 95 0.0 1.0 0.00 0.00 0.00 39 1011.3
20260906034404 73 94 0.0 1.0 0.00 0.00 0.00 39 1011.3
20260906034204 73 93 0.0 1.0 0.00 0.00 0.00 39 1011.2
20260906034004 73 92 0.0 1.0 0.00 0.00 0.00 39 1011.2
20260906033804 73 90 0.0 1.0 0.00 0.00 0.00 39 1011.2
20260906033604 73 89 0.0 2.0 0.00 0.00 0.00 39 1011.2
20260906033404 73 89 0.0 2.0 0.00 0.00 0.00 39 1011.2
20260906033204 73 89 0.0 2.0 0.00 0.00 0.00 39 1011.2
20260906033004 73 89 0.0 2.0 0.00 0.00 0.00 39 1011.2
20260906032804 73 91 0.0 2.0 0.00 0.00 0.00 39 1011.2
20260906032604 73 96 0.0 2.0 0.00 0.00 0.00 39 1011.2
20260906032425 73 97 0.0 2.0 0.00 0.00 0.00 39 1011.2
20260906032204 73 98 0.0 2.0 0.00 0.00 0.00 39 1011.2
20260906032004 73 98 0.0 2.0 0.00 0.00 0.00 39 1011.2
20260906031805 73 97 0.0 2.0 0.00 0.00 0.00 39 1011.2
20260906031604 73 0 0.0 0.0 0.00 0.00 0.00 39 1011.2
20260906031404 73 97 0.0 3.0 0.00 0.00 0.00 39 1011.2
20260906031204 74 98 1.0 3.0 0.00 0.00 0.00 38 1011.1
20260906031025 74 99 1.0 3.0 0.00 0.00 0.00 38 1011.1
20260906030804 74 98 1.0 3.0 0.00 0.00 0.00 38 1011.1
20260906030605 74 98 1.0 3.0 0.00 0.00 0.00 38 1011.0
20260906030404 74 97 1.0 3.0 0.00 0.00 0.00 38 1011.1
20260906030204 74 95 1.0 3.0 0.00 0.00 0.00 38 1011.1
20260906030025 74 95 1.0 3.0 0.00 0.00 0.00 38 1011.1
20260906025804 74 95 1.0 2.0 0.00 0.00 0.00 38 1011.0
20260906025604 74 93 1.0 2.0 0.00 0.00 0.00 38 1011.0
20260906025404 74 94 0.0 2.0 0.00 0.00 0.00 38 1011.0
20260906025204 74 99 0.0 2.0 0.00 0.00 0.00 38 1011.0
20260906025004 74 92 0.0 1.0 0.00 0.00 0.00 38 1010.9
20260906024804 74 92 0.0 1.0 0.00 0.00 0.00 37 1011.0
20260906024604 74 0 0.0 0.0 0.00 0.00 0.00 37 1010.9
20260906024404 75 0 0.0 0.0 0.00 0.00 0.00 37 1010.9
20260906024204 75 0 0.0 0.0 0.00 0.00 0.00 37 1011.0
20260906024004 75 0 0.0 0.0 0.00 0.00 0.00 37 1010.9
20260906023804 75 0 0.0 0.0 0.00 0.00 0.00 37 1010.9
20260906023604 75 0 0.0 0.0 0.00 0.00 0.00 37 1010.9
20260906023404 75 0 0.0 0.0 0.00 0.00 0.00 37 1010.9
20260906023204 75 0 0.0 0.0 0.00 0.00 0.00 37 1010.9
20260906023004 76 0 0.0 0.0 0.00 0.00 0.00 36 1011.0
20260906022804 76 5 0.0 1.0 0.00 0.00 0.00 36 1010.9
20260906022604 76 5 0.0 1.0 0.00 0.00 0.00 36 1010.9
20260906022404 76 5 0.0 1.0 0.00 0.00 0.00 36 1010.9
20260906022204 76 5 0.0 1.0 0.00 0.00 0.00 36 1010.8
20260906022005 77 5 0.0 1.0 0.00 0.00 0.00 36 1010.8
20260906021804 77 33 0.0 1.0 0.00 0.00 0.00 36 1010.8
20260906021604 77 345 0.0 2.0 0.00 0.00 0.00 36 1010.8
20260906021404 77 342 0.0 2.0 0.00 0.00 0.00 35 1010.8
20260906021204 77 342 0.0 2.0 0.00 0.00 0.00 35 1010.8
20260906021004 77 342 0.0 2.0 0.00 0.00 0.00 35 1010.7
20260906020825 78 311 0.0 2.0 0.00 0.00 0.00 35 1010.7
20260906020604 78 295 0.0 2.0 0.00 0.00 0.00 35 1010.7
20260906020404 78 295 0.0 2.0 0.00 0.00 0.00 35 1010.7
20260906020225 78 288 0.0 2.0 0.00 0.00 0.00 35 1010.7
20260906020004 78 292 0.0 3.0 0.00 0.00 0.00 34 1010.7
20260906015804 78 291 0.0 3.0 0.00 0.00 0.00 34 1010.7
20260906015604 78 297 0.0 3.0 0.00 0.00 0.00 34 1010.7
20260906015425 78 297 0.0 3.0 0.00 0.00 0.00 34 1010.6
20260906015225 78 311 0.0 3.0 0.00 0.00 0.00 34 1010.6
20260906015004 79 309 0.0 2.0 0.00 0.00 0.00 34 1010.6
20260906014804 79 307 0.0 3.0 0.00 0.00 0.00 34 1010.6
20260906014604 79 306 0.0 3.0 0.00 0.00 0.00 34 1010.6
20260906014405 79 313 1.0 5.0 0.00 0.00 0.00 33 1010.6
20260906014225 79 311 1.0 5.0 0.00 0.00 0.00 34 1010.5
20260906014004 79 309 1.0 5.0 0.00 0.00 0.00 33 1010.5
20260906013604 80 318 1.0 5.0 0.00 0.00 0.00 33 1010.5
20260906013404 80 317 1.0 4.0 0.00 0.00 0.00 33 1010.5
20260906013204 80 317 1.0 4.0 0.00 0.00 0.00 33 1010.6
20260906013004 80 313 1.0 4.0 0.00 0.00 0.00 33 1010.6
20260906012825 80 296 1.0 4.0 0.00 0.00 0.00 33 1010.6
20260906012604 80 298 1.0 5.0 0.00 0.00 0.00 32 1010.6
20260906012404 80 296 1.0 6.0 0.00 0.00 0.00 32 1010.6
20260906012204 80 295 2.0 6.0 0.00 0.00 0.00 32 1010.6
20260906012004 80 296 2.0 6.0 0.00 0.00 0.00 32 1010.7
20260906011804 80 295 3.0 6.0 0.00 0.00 0.00 31 1010.7
20260906011605 80 293 2.0 6.0 0.00 0.00 0.00 31 1010.7
20260906011404 81 292 2.0 6.0 0.00 0.00 0.00 31 1010.7
20260906011204 81 291 2.0 5.0 0.00 0.00 0.00 31 1010.7
20260906011004 81 293 2.0 6.0 0.00 0.00 0.00 31 1010.7
20260906010804 81 293 2.0 6.0 0.00 0.00 0.00 31 1010.7
20260906010604 81 291 2.0 7.0 0.00 0.00 0.00 31 1010.7
20260906010404 81 291 3.0 7.0 0.00 0.00 0.00 30 1010.7
20260906010204 81 291 3.0 7.0 0.00 0.00 0.00 30 1010.7
20260906010025 81 289 3.0 7.0 0.00 0.00 0.00 30 1010.7
20260906005804 81 288 3.0 7.0 0.00 0.00 0.00 30 1010.7
20260906005604 81 290 3.0 7.0 0.00 0.00 0.00 30 1010.7
20260906005404 82 292 2.0 6.0 0.00 0.00 0.00 30 1010.7
20260906005204 82 293 2.0 6.0 0.00 0.00 0.00 29 1010.7
20260906005004 82 297 2.0 6.0 0.00 0.00 0.00 29 1010.6
20260906004804 82 297 2.0 4.0 0.00 0.00 0.00 29 1010.6
20260906004604 82 296 2.0 4.0 0.00 0.00 0.00 29 1010.6
20260906004404 82 296 2.0 4.0 0.00 0.00 0.00 28 1010.7
20260906004204 82 295 2.0 4.0 0.00 0.00 0.00 28 1010.6
20260906004004 82 294 2.0 5.0 0.00 0.00 0.00 28 1010.6
20260906003804 82 293 2.0 5.0 0.00 0.00 0.00 28 1010.6
20260906003604 82 295 2.0 5.0 0.00 0.00 0.00 29 1010.6
20260906003404 82 296 2.0 5.0 0.00 0.00 0.00 29 1010.6
20260906003204 82 298 2.0 5.0 0.00 0.00 0.00 28 1010.6
20260906003004 82 300 1.0 4.0 0.00 0.00 0.00 28 1010.5
20260906002804 82 306 1.0 4.0 0.00 0.00 0.00 28 1010.5
20260906002604 82 326 1.0 5.0 0.00 0.00 0.00 28 1010.4
20260906002404 82 325 1.0 5.0 0.00 0.00 0.00 28 1010.4
20260906002225 82 327 1.0 5.0 0.00 0.00 0.00 28 1010.4
20260906002004 82 317 1.0 5.0 0.00 0.00 0.00 28 1010.4
20260906001825 82 314 2.0 5.0 0.00 0.00 0.00 28 1010.4
20260906001625 82 307 2.0 5.0 0.00 0.00 0.00 28 1010.4
20260906001404 82 301 2.0 5.0 0.00 0.00 0.00 28 1010.4
20260906001204 82 295 2.0 5.0 0.00 0.00 0.00 28 1010.4
20260906001004 82 295 1.0 4.0 0.00 0.00 0.00 27 1010.4
20260906000804 82 292 1.0 4.0 0.00 0.00 0.00 27 1010.4
20260906000604 82 290 1.0 4.0 0.00 0.00 0.00 27 1010.3
20260906000426 82 290 1.0 4.0 0.00 0.00 0.00 27 1010.4
20260906000205 82 291 0.0 4.0 0.00 0.00 0.00 28 1010.4
20260906000004 82 292 0.0 4.0 0.00 0.00 0.00 27 1010.4
20260905235804 82 298 1.0 4.0 0.00 0.00 0.00 27 1010.4
20260905235604 82 298 1.0 4.0 0.00 0.00 0.00 27 1010.5
20260905235404 82 304 1.0 4.0 0.00 0.00 0.00 28 1010.5
20260905235204 82 314 1.0 5.0 0.00 0.00 0.00 27 1010.5
20260905235004 82 326 1.0 5.0 0.00 0.00 0.00 28 1010.4
20260905234825 82 335 1.0 6.0 0.00 0.00 0.00 27 1010.4
20260905234604 82 325 2.0 8.0 0.00 0.00 0.00 27 1010.4
20260905234404 82 323 2.0 8.0 0.00 0.00 0.00 27 1010.4
20260905234204 82 306 2.0 8.0 0.00 0.00 0.00 27 1010.5
20260905234004 83 301 3.0 8.0 0.00 0.00 0.00 26 1010.5
20260905233825 83 298 3.0 8.0 0.00 0.00 0.00 27 1010.4
20260905233604 83 296 2.0 7.0 0.00 0.00 0.00 27 1010.4
20260905233404 83 292 2.0 7.0 0.00 0.00 0.00 26 1010.4
20260905233204 83 313 1.0 6.0 0.00 0.00 0.00 28 1010.4
20260905233004 83 122 1.0 5.0 0.00 0.00 0.00 29 1010.3
20260905232804 83 124 1.0 5.0 0.00 0.00 0.00 28 1010.3
20260905232604 84 132 1.0 5.0 0.00 0.00 0.00 28 1010.3
20260905232404 84 147 1.0 5.0 0.00 0.00 0.00 28 1010.3
20260905232225 84 183 1.0 6.0 0.00 0.00 0.00 28 1010.4
20260905232004 84 256 1.0 6.0 0.00 0.00 0.00 29 1010.4
20260905231804 84 260 1.0 6.0 0.00 0.00 0.00 28 1010.4
20260905231604 84 308 1.0 6.0 0.00 0.00 0.00 28 1010.5
20260905231425 84 301 1.0 6.0 0.00 0.00 0.00 28 1010.5
20260905231225 84 310 1.0 5.0 0.00 0.00 0.00 29 1010.5
20260905231004 84 308 2.0 8.0 0.00 0.00 0.00 29 1010.5
20260905230804 84 307 2.0 8.0 0.00 0.00 0.00 29 1010.5
20260905230625 84 304 2.0 8.0 0.00 0.00 0.00 29 1010.5
20260905230405 84 310 2.0 8.0 0.00 0.00 0.00 29 1010.5
20260905230204 84 303 2.0 8.0 0.00 0.00 0.00 29 1010.5
20260905230004 84 310 2.0 6.0 0.00 0.00 0.00 29 1010.5
20260905225804 84 313 2.0 6.0 0.00 0.00 0.00 29 1010.5
20260905225604 84 302 2.0 6.0 0.00 0.00 0.00 29 1010.6
20260905225404 84 288 2.0 9.0 0.00 0.00 0.00 28 1010.6
20260905225204 84 295 2.0 9.0 0.00 0.00 0.00 29 1010.6
20260905225025 84 280 2.0 9.0 0.00 0.00 0.00 28 1010.6
20260905224804 84 266 2.0 9.0 0.00 0.00 0.00 28 1010.6
20260905224604 84 111 2.0 9.0 0.00 0.00 0.00 28 1010.6
20260905224404 84 120 2.0 7.0 0.00 0.00 0.00 27 1010.7
20260905224204 84 118 3.0 8.0 0.00 0.00 0.00 26 1010.6
20260905224004 84 119 2.0 8.0 0.00 0.00 0.00 26 1010.7
20260905223804 84 122 2.0 8.0 0.00 0.00 0.00 27 1010.7
20260905223604 84 116 3.0 9.0 0.00 0.00 0.00 26 1010.7
20260905223404 84 110 2.0 9.0 0.00 0.00 0.00 26 1010.7
20260905223204 84 113 2.0 9.0 0.00 0.00 0.00 27 1010.7
20260905223025 84 116 2.0 9.0 0.00 0.00 0.00 26 1010.8
20260905222804 84 113 2.0 9.0 0.00 0.00 0.00 26 1010.8
20260905222604 84 135 1.0 5.0 0.00 0.00 0.00 26 1010.8
20260905222404 85 203 2.0 5.0 0.00 0.00 0.00 26 1010.8
20260905222204 85 231 2.0 5.0 0.00 0.00 0.00 25 1010.9
20260905222004 85 221 2.0 8.0 0.00 0.00 0.00 26 1010.9
20260905221804 85 218 1.0 8.0 0.00 0.00 0.00 26 1010.9
20260905221625 85 226 2.0 8.0 0.00 0.00 0.00 25 1011.0
20260905221404 85 140 2.0 8.0 0.00 0.00 0.00 26 1011.0
20260905221204 85 135 2.0 8.0 0.00 0.00 0.00 25 1011.0
20260905221004 85 126 2.0 8.0 0.00 0.00 0.00 26 1011.0
20260905220804 84 132 2.0 8.0 0.00 0.00 0.00 27 1011.0
20260905220604 84 122 2.0 8.0 0.00 0.00 0.00 26 1011.0
20260905220404 84 128 3.0 11.0 0.00 0.00 0.00 26 1011.0
20260905220204 84 126 3.0 11.0 0.00 0.00 0.00 26 1011.1
20260905220004 84 131 4.0 11.0 0.00 0.00 0.00 27 1011.1
20260905215804 84 126 5.0 19.0 0.00 0.00 0.00 26 1011.1
20260905215604 84 130 5.0 19.0 0.00 0.00 0.00 26 1011.1
20260905215404 84 129 4.0 19.0 0.00 0.00 0.00 26 1011.2
20260905215204 84 134 3.0 19.0 0.00 0.00 0.00 27 1011.3
20260905215004 84 151 3.0 19.0 0.00 0.00 0.00 27 1011.2
20260905214804 84 210 2.0 7.0 0.00 0.00 0.00 27 1011.2
20260905214604 84 139 3.0 10.0 0.00 0.00 0.00 28 1011.3
20260905214404 84 129 4.0 10.0 0.00 0.00 0.00 26 1011.3
20260905214225 84 136 5.0 11.0 0.00 0.00 0.00 26 1011.4
20260905214004 84 124 5.0 11.0 0.00 0.00 0.00 26 1011.4
20260905213804 84 126 5.0 11.0 0.00 0.00 0.00 27 1011.3
20260905213604 84 128 5.0 11.0 0.00 0.00 0.00 27 1011.4
20260905213404 84 126 5.0 11.0 0.00 0.00 0.00 27 1011.4
20260905213204 84 120 5.0 12.0 0.00 0.00 0.00 27 1011.4
20260905213004 84 129 5.0 12.0 0.00 0.00 0.00 26 1011.4
20260905212804 84 130 5.0 12.0 0.00 0.00 0.00 26 1011.4
20260905212604 85 140 4.0 12.0 0.00 0.00 0.00 26 1011.4
20260905212425 86 164 4.0 12.0 0.00 0.00 0.00 26 1011.5
20260905212225 86 235 4.0 12.0 0.00 0.00 0.00 25 1011.4
20260905212025 86 289 3.0 7.0 0.00 0.00 0.00 25 1011.4
20260905211804 85 296 3.0 7.0 0.00 0.00 0.00 24 1011.4
20260905211625 85 294 4.0 11.0 0.00 0.00 0.00 24 1011.5
20260905211404 85 293 4.0 11.0 0.00 0.00 0.00 26 1011.5
20260905211204 85 296 4.0 11.0 0.00 0.00 0.00 25 1011.5
20260905211025 85 296 4.0 11.0 0.00 0.00 0.00 25 1011.5
20260905210825 85 294 3.0 11.0 0.00 0.00 0.00 25 1011.5
20260905210604 85 301 3.0 8.0 0.00 0.00 0.00 24 1011.6
20260905210404 85 93 3.0 8.0 0.00 0.00 0.00 25 1011.6
20260905210204 85 128 3.0 7.0 0.00 0.00 0.00 26 1011.8
20260905210004 84 118 3.0 7.0 0.00 0.00 0.00 26 1011.7
20260905205804 85 299 3.0 7.0 0.00 0.00 0.00 26 1011.7
20260905205604 85 296 2.0 7.0 0.00 0.00 0.00 26 1011.8
20260905205404 85 290 2.0 6.0 0.00 0.00 0.00 26 1011.8
20260905205204 85 294 2.0 6.0 0.00 0.00 0.00 27 1011.8
20260905205004 85 290 2.0 6.0 0.00 0.00 0.00 26 1011.8
20260905204804 85 283 2.0 6.0 0.00 0.00 0.00 25 1011.9
20260905204604 84 233 3.0 7.0 0.00 0.00 0.00 25 1012.0
20260905204404 84 186 3.0 7.0 0.00 0.00 0.00 28 1011.9
20260905204225 84 170 3.0 7.0 0.00 0.00 0.00 27 1012.0
20260905204004 83 174 2.0 7.0 0.00 0.00 0.00 26 1012.0
20260905203804 84 187 2.0 7.0 0.00 0.00 0.00 26 1012.0
20260905203625 83 257 2.0 7.0 0.00 0.00 0.00 26 1012.0
20260905203404 83 288 2.0 7.0 0.00 0.00 0.00 26 1012.0
20260905203204 83 292 3.0 8.0 0.00 0.00 0.00 27 1012.0
20260905203004 83 292 4.0 8.0 0.00 0.00 0.00 27 1012.1
20260905202804 83 292 4.0 9.0 0.00 0.00 0.00 27 1012.1
20260905202625 83 285 4.0 9.0 0.00 0.00 0.00 27 1012.1
20260905202404 84 249 4.0 9.0 0.00 0.00 0.00 26 1012.2
20260905202204 84 173 3.0 9.0 0.00 0.00 0.00 25 1012.2
20260905202025 84 154 4.0 9.0 0.00 0.00 0.00 26 1012.2
20260905201804 84 139 4.0 9.0 0.00 0.00 0.00 25 1012.2
20260905201604 84 140 3.0 9.0 0.00 0.00 0.00 24 1012.3
20260905201404 84 155 2.0 9.0 0.00 0.00 0.00 24 1012.3
20260905201204 84 176 2.0 9.0 0.00 0.00 0.00 24 1012.4
20260905201004 84 280 2.0 7.0 0.00 0.00 0.00 25 1012.3
20260905200804 84 279 2.0 7.0 0.00 0.00 0.00 25 1012.4
20260905200625 84 284 3.0 7.0 0.00 0.00 0.00 25 1012.3
20260905200404 84 288 2.0 7.0 0.00 0.00 0.00 24 1012.3
20260905200204 84 295 3.0 7.0 0.00 0.00 0.00 25 1012.3
20260905200004 84 295 2.0 7.0 0.00 0.00 0.00 26 1012.3
20260905195804 84 292 2.0 7.0 0.00 0.00 0.00 26 1012.3
20260905195604 84 293 3.0 12.0 0.00 0.00 0.00 26 1012.3
20260905195425 84 293 4.0 12.0 0.00 0.00 0.00 26 1012.4
20260905195204 84 295 4.0 12.0 0.00 0.00 0.00 27 1012.4
20260905195004 83 291 4.0 12.0 0.00 0.00 0.00 28 1012.4
20260905194804 83 293 4.0 12.0 0.00 0.00 0.00 28 1012.3
20260905194604 83 293 4.0 9.0 0.00 0.00 0.00 27 1012.4
20260905194404 83 292 4.0 8.0 0.00 0.00 0.00 26 1012.4
20260905194204 84 291 3.0 8.0 0.00 0.00 0.00 25 1012.4
20260905194025 84 296 2.0 8.0 0.00 0.00 0.00 25 1012.4
20260905193804 84 281 2.0 9.0 0.00 0.00 0.00 24 1012.4
20260905193604 84 279 2.0 9.0 0.00 0.00 0.00 25 1012.4
20260905193404 84 281 2.0 9.0 0.00 0.00 0.00 23 1012.4
20260905193204 84 281 2.0 9.0 0.00 0.00 0.00 22 1012.6
20260905193025 84 276 2.0 9.0 0.00 0.00 0.00 22 1012.6
20260905192804 83 283 3.0 9.0 0.00 0.00 0.00 22 1012.6
20260905192604 83 274 3.0 9.0 0.00 0.00 0.00 21 1012.6
20260905192404 83 270 3.0 9.0 0.00 0.00 0.00 23 1012.6
20260905192225 83 274 3.0 9.0 0.00 0.00 0.00 21 1012.8
20260905192004 84 283 3.0 9.0 0.00 0.00 0.00 22 1012.8
20260905191804 84 285 2.0 7.0 0.00 0.00 0.00 22 1012.8
20260905191604 84 277 2.0 5.0 0.00 0.00 0.00 24 1012.8
20260905191405 84 261 1.0 5.0 0.00 0.00 0.00 25 1012.8
20260905191205 84 171 1.0 5.0 0.00 0.00 0.00 25 1012.8
20260905191004 84 246 2.0 6.0 0.00 0.00 0.00 25 1012.9
20260905190804 83 266 2.0 6.0 0.00 0.00 0.00 24 1012.8
20260905190604 83 286 2.0 9.0 0.00 0.00 0.00 23 1012.9
20260905190405 83 292 2.0 9.0 0.00 0.00 0.00 24 1012.9
20260905190204 82 285 2.0 9.0 0.00 0.00 0.00 23 1012.9
20260905190004 82 286 2.0 9.0 0.00 0.00 0.00 21 1012.9
20260905185825 82 282 2.0 9.0 0.00 0.00 0.00 21 1013.0
20260905185625 81 267 2.0 8.0 0.00 0.00 0.00 21 1013.0
20260905185404 81 266 2.0 8.0 0.00 0.00 0.00 22 1013.1
20260905185204 81 274 3.0 7.0 0.00 0.00 0.00 21 1013.1
20260905185004 81 273 3.0 7.0 0.00 0.00 0.00 20 1013.0
20260905184825 81 274 3.0 7.0 0.00 0.00 0.00 21 1013.1
20260905184604 81 288 2.0 7.0 0.00 0.00 0.00 20 1013.0
20260905184425 81 294 2.0 6.0 0.00 0.00 0.00 20 1013.0
20260905184225 81 290 2.0 7.0 0.00 0.00 0.00 20 1013.1
20260905184004 81 294 3.0 8.0 0.00 0.00 0.00 21 1013.0
20260905183804 81 300 3.0 8.0 0.00 0.00 0.00 20 1013.0
20260905183604 81 300 3.0 8.0 0.00 0.00 0.00 20 1013.0
20260905183425 81 297 3.0 8.0 0.00 0.00 0.00 20 1013.0
20260905183205 81 301 4.0 8.0 0.00 0.00 0.00 21 1013.0
20260905183004 81 303 3.0 8.0 0.00 0.00 0.00 20 1013.0
20260905182804 81 301 3.0 8.0 0.00 0.00 0.00 21 1013.1
20260905182604 81 295 3.0 8.0 0.00 0.00 0.00 21 1013.1
20260905182404 81 293 3.0 8.0 0.00 0.00 0.00 21 1013.0
20260905182204 80 292 2.0 7.0 0.00 0.00 0.00 22 1013.1
20260905182004 80 288 2.0 7.0 0.00 0.00 0.00 21 1013.2
20260905181804 80 283 2.0 7.0 0.00 0.00 0.00 20 1013.1
20260905181604 80 292 2.0 5.0 0.00 0.00 0.00 20 1013.1
20260905181404 80 297 2.0 6.0 0.00 0.00 0.00 20 1013.2
20260905181204 80 297 2.0 6.0 0.00 0.00 0.00 22 1013.2
20260905181025 80 296 2.0 6.0 0.00 0.00 0.00 20 1013.2
20260905180804 81 300 2.0 6.0 0.00 0.00 0.00 20 1013.2
20260905180605 81 295 2.0 6.0 0.00 0.00 0.00 21 1013.2
20260905180404 81 290 2.0 5.0 0.00 0.00 0.00 21 1013.3
20260905180226 81 288 1.0 5.0 0.00 0.00 0.00 21 1013.2
20260905180004 80 292 2.0 6.0 0.00 0.00 0.00 22 1013.3
20260905175804 80 291 2.0 6.0 0.00 0.00 0.00 22 1013.2
20260905175604 80 296 2.0 6.0 0.00 0.00 0.00 23 1013.2
20260905175404 79 297 2.0 6.0 0.00 0.00 0.00 23 1013.1
20260905175225 79 296 2.0 6.0 0.00 0.00 0.00 22 1013.1
20260905175004 79 294 2.0 6.0 0.00 0.00 0.00 23 1013.2
20260905174804 79 295 2.0 7.0 0.00 0.00 0.00 24 1013.1
20260905174604 79 293 2.0 8.0 0.00 0.00 0.00 22 1013.1
20260905174404 79 289 2.0 8.0 0.00 0.00 0.00 22 1013.1
20260905174225 79 288 2.0 8.0 0.00 0.00 0.00 22 1013.0
20260905174004 79 289 2.0 8.0 0.00 0.00 0.00 22 1013.1
20260905173804 79 288 2.0 8.0 0.00 0.00 0.00 22 1013.0
20260905173604 79 291 3.0 7.0 0.00 0.00 0.00 22 1013.0
20260905173425 78 292 3.0 7.0 0.00 0.00 0.00 23 1013.0
20260905173204 79 297 3.0 7.0 0.00 0.00 0.00 24 1013.0
20260905173004 78 298 2.0 6.0 0.00 0.00 0.00 24 1013.0
20260905172825 78 297 2.0 6.0 0.00 0.00 0.00 23 1013.0
20260905172604 78 297 2.0 6.0 0.00 0.00 0.00 24 1012.9
20260905172404 78 298 2.0 6.0 0.00 0.00 0.00 24 1012.9
20260905172204 78 290 2.0 6.0 0.00 0.00 0.00 24 1012.9
20260905172004 78 288 2.0 6.0 0.00 0.00 0.00 24 1012.9
20260905171804 78 291 2.0 6.0 0.00 0.00 0.00 24 1012.9
20260905171604 78 287 1.0 5.0 0.00 0.00 0.00 24 1012.9
20260905171404 78 287 1.0 5.0 0.00 0.00 0.00 25 1012.9
20260905171204 78 287 1.0 5.0 0.00 0.00 0.00 25 1012.9
20260905171004 77 279 1.0 5.0 0.00 0.00 0.00 25 1012.9
20260905170804 77 269 1.0 5.0 0.00 0.00 0.00 25 1012.9
20260905170625 77 265 1.0 5.0 0.00 0.00 0.00 26 1012.9
20260905170404 77 269 1.0 5.0 0.00 0.00 0.00 25 1012.9
20260905170204 77 273 1.0 5.0 0.00 0.00 0.00 25 1012.9
20260905170004 77 288 0.0 4.0 0.00 0.00 0.00 25 1013.0
20260905165804 76 289 0.0 4.0 0.00 0.00 0.00 26 1013.0
20260905165604 76 295 0.0 4.0 0.00 0.00 0.00 26 1013.0
20260905165404 76 298 0.0 4.0 0.00 0.00 0.00 25 1013.0
20260905165204 76 307 0.0 1.0 0.00 0.00 0.00 26 1012.9
20260905165004 76 307 0.0 1.0 0.00 0.00 0.00 26 1012.9
20260905164804 76 307 0.0 1.0 0.00 0.00 0.00 27 1013.0
20260905164604 76 258 0.0 1.0 0.00 0.00 0.00 26 1012.9
20260905164404 75 252 0.0 1.0 0.00 0.00 0.00 26 1012.9
20260905164204 75 246 0.0 1.0 0.00 0.00 0.00 27 1012.9
20260905164004 75 246 0.0 1.0 0.00 0.00 0.00 27 1012.9